• In Uzbekistan
  • List of Countries
  • For 7 days
  • Water Temperature
  • Satellite Maps
  • Weather Map
  • Weather Widgets
  • user-avatar
    Login

    Hourly Weather Arkadia

    Today, 19 August, Saturday

    Time Temperature Precipitation Wind Pressure Humidity
    00:00 +18°C° 0 mm 2 mps 666 mmHg 43%
    01:00 +18°C° 0 mm 2 mps 666 mmHg 43%
    02:00 +18°C° 0 mm 2 mps 666 mmHg 43%
    03:00 +18°C° 0 mm 2 mps 666 mmHg 44%
    04:00 +17°C° 0 mm 2 mps 666 mmHg 45%
    05:00 +19°C° 0 mm 2 mps 667 mmHg 42%
    06:00 +21°C° 0 mm 2 mps 667 mmHg 39%
    07:00 +23°C° 0 mm 2 mps 668 mmHg 36%
    08:00 +25°C° 0 mm 2 mps 668 mmHg 32%
    09:00 +26°C° 0 mm 3 mps 668 mmHg 29%
    10:00 +28°C° 0 mm 3 mps 669 mmHg 25%
    11:00 +28°C° 0 mm 3 mps 669 mmHg 25%
    12:00 +29°C° 0 mm 4 mps 669 mmHg 24%
    13:00 +29°C° 0 mm 4 mps 669 mmHg 23%
    14:00 +29°C° 0 mm 4 mps 669 mmHg 24%
    15:00 +28°C° 0 mm 3 mps 669 mmHg 25%
    16:00 +28°C° 0 mm 3 mps 668 mmHg 26%
    17:00 +26°C° 0 mm 3 mps 668 mmHg 29%
    18:00 +24°C° 0 mm 2 mps 667 mmHg 33%
    19:00 +22°C° 0 mm 1 mps 667 mmHg 37%
    20:00 +21°C° 0 mm 1 mps 667 mmHg 38%
    21:00 +21°C° 0 mm 1 mps 667 mmHg 39%
    22:00 +20°C° 0 mm 1 mps 667 mmHg 40%
    23:00 +20°C° 0 mm 1 mps 666 mmHg 40%

    Tomorrow, 20 August, Sunday

    Time Temperature Precipitation Wind Pressure Humidity
    00:00 +19°C° 0 mm 1 mps 666 mmHg 40%
    01:00 +19°C° 0 mm 1 mps 666 mmHg 41%
    02:00 +19°C° 0 mm 1 mps 666 mmHg 40%
    03:00 +18°C° 0 mm 1 mps 665 mmHg 40%
    04:00 +17°C° 0 mm 2 mps 665 mmHg 40%
    05:00 +20°C° 0 mm 1 mps 666 mmHg 38%
    06:00 +22°C° 0 mm 1 mps 666 mmHg 36%
    07:00 +23°C° 0 mm 1 mps 667 mmHg 34%
    08:00 +25°C° 0 mm 1 mps 667 mmHg 31%
    09:00 +27°C° 0 mm 2 mps 668 mmHg 28%
    10:00 +29°C° 0 mm 2 mps 668 mmHg 25%
    11:00 +29°C° 0 mm 2 mps 668 mmHg 25%
    12:00 +29°C° 0 mm 3 mps 667 mmHg 24%
    13:00 +29°C° 0 mm 3 mps 667 mmHg 23%
    14:00 +28°C° 0 mm 3 mps 667 mmHg 25%
    15:00 +27°C° 0 mm 2 mps 666 mmHg 27%
    16:00 +27°C° 0 mm 2 mps 666 mmHg 29%
    17:00 +25°C° 0 mm 2 mps 666 mmHg 33%
    18:00 +23°C° 0 mm 1 mps 665 mmHg 38%
    19:00 +22°C° 0 mm 1 mps 665 mmHg 42%
    20:00 +21°C° 0 mm 1 mps 665 mmHg 44%
    21:00 +20°C° 0 mm 1 mps 665 mmHg 47%
    22:00 +20°C° 0 mm 1 mps 664 mmHg 49%
    23:00 +19°C° 0 mm 1 mps 664 mmHg 50%

    Day after tomorrow, 21 August, Monday

    Time Temperature Precipitation Wind Pressure Humidity
    00:00 +19°C° 0 mm 1 mps 664 mmHg 51%
    01:00 +19°C° 0 mm 1 mps 664 mmHg 52%
    02:00 +19°C° 0 mm 1 mps 663 mmHg 53%
    03:00 +18°C° 0 mm 1 mps 663 mmHg 54%
    04:00 +18°C° 0 mm 1 mps 663 mmHg 55%
    05:00 +20°C° 0 mm 1 mps 663 mmHg 51%
    06:00 +21°C° 0 mm 1 mps 664 mmHg 48%
    07:00 +23°C° 0 mm 1 mps 664 mmHg 45%
    08:00 +24°C° 0.1 mm 1 mps 665 mmHg 40%
    09:00 +26°C° 0.1 mm 1 mps 666 mmHg 36%
    10:00 +27°C° 0.1 mm 1 mps 666 mmHg 31%
    11:00 +27°C° 0.1 mm 2 mps 666 mmHg 31%
    12:00 +28°C° 0.1 mm 2 mps 666 mmHg 31%
    13:00 +28°C° 0.1 mm 3 mps 666 mmHg 31%
    14:00 +27°C° 0.2 mm 2 mps 665 mmHg 33%
    15:00 +27°C° 0.2 mm 2 mps 665 mmHg 34%
    16:00 +26°C° 0.2 mm 2 mps 665 mmHg 36%
    17:00 +25°C° 0 mm 2 mps 665 mmHg 43%
    18:00 +23°C° 0 mm 1 mps 664 mmHg 49%
    19:00 +21°C° 0 mm 1 mps 664 mmHg 55%
    20:00 +21°C° 0 mm 1 mps 664 mmHg 58%
    21:00 +20°C° 0 mm 1 mps 664 mmHg 60%
    22:00 +19°C° 0 mm 1 mps 664 mmHg 63%
    23:00 +19°C° 0 mm 1 mps 664 mmHg 64%

    22 August, Tuesday

    Time Temperature Precipitation Wind Pressure Humidity
    00:00 +19°C° 0 mm 1 mps 664 mmHg 65%
    01:00 +18°C° 0 mm 1 mps 664 mmHg 65%
    02:00 +18°C° 0 mm 1 mps 664 mmHg 65%
    03:00 +18°C° 0 mm 1 mps 664 mmHg 66%
    04:00 +18°C° 0 mm 1 mps 664 mmHg 66%
    05:00 +19°C° 0 mm 1 mps 664 mmHg 61%
    06:00 +20°C° 0 mm 1 mps 665 mmHg 56%
    07:00 +22°C° 0 mm 1 mps 666 mmHg 50%
    08:00 +23°C° 0 mm 1 mps 666 mmHg 46%
    09:00 +25°C° 0 mm 2 mps 667 mmHg 41%
    10:00 +27°C° 0 mm 2 mps 667 mmHg 36%
    11:00 +27°C° 0 mm 2 mps 667 mmHg 35%
    12:00 +27°C° 0 mm 3 mps 667 mmHg 34%
    13:00 +27°C° 0 mm 3 mps 667 mmHg 34%
    14:00 +26°C° 0 mm 3 mps 667 mmHg 37%
    15:00 +25°C° 0 mm 2 mps 666 mmHg 40%
    16:00 +24°C° 0 mm 2 mps 666 mmHg 43%
    17:00 +23°C° 0 mm 2 mps 666 mmHg 47%
    18:00 +22°C° 0 mm 1 mps 666 mmHg 51%
    19:00 +21°C° 0 mm 1 mps 666 mmHg 55%
    20:00 +20°C° 0 mm 1 mps 666 mmHg 58%
    21:00 +19°C° 0 mm 1 mps 666 mmHg 61%
    22:00 +18°C° 0 mm 1 mps 666 mmHg 63%
    23:00 +18°C° 0 mm 1 mps 666 mmHg 63%

    23 August, Wednesday

    Time Temperature Precipitation Wind Pressure Humidity
    00:00 +18°C° 0 mm 1 mps 666 mmHg 63%
    01:00 +18°C° 0 mm 1 mps 665 mmHg 62%
    02:00 +16°C° 0 mm 1 mps 665 mmHg 61%
    03:00 +16°C° 0 mm 1 mps 666 mmHg 60%
    04:00 +16°C° 0 mm 1 mps 666 mmHg 59%
    05:00 +18°C° 0 mm 1 mps 666 mmHg 54%
    06:00 +20°C° 0 mm 1 mps 667 mmHg 48%
    07:00 +21°C° 0 mm 1 mps 668 mmHg 42%
    08:00 +23°C° 0 mm 2 mps 668 mmHg 37%
    09:00 +24°C° 0 mm 2 mps 669 mmHg 31%
    10:00 +26°C° 0 mm 2 mps 669 mmHg 25%
    11:00 +26°C° 0 mm 2 mps 669 mmHg 25%
    12:00 +27°C° 0 mm 2 mps 669 mmHg 24%
    13:00 +28°C° 0 mm 3 mps 669 mmHg 24%
    14:00 +27°C° 0 mm 3 mps 669 mmHg 26%
    15:00 +26°C° 0 mm 3 mps 669 mmHg 28%
    16:00 +26°C° 0 mm 3 mps 669 mmHg 31%
    17:00 +24°C° 0 mm 2 mps 668 mmHg 37%
    18:00 +21°C° 0 mm 2 mps 668 mmHg 44%
    19:00 +20°C° 0 mm 1 mps 668 mmHg 51%
    20:00 +19°C° 0 mm 1 mps 668 mmHg 53%
    21:00 +19°C° 0 mm 1 mps 668 mmHg 55%
    22:00 +18°C° 0 mm 1 mps 668 mmHg 57%
    23:00 +18°C° 0 mm 1 mps 667 mmHg 57%

    24 August, Thursday

    Time Temperature Precipitation Wind Pressure Humidity
    00:00 +16°C° 0 mm 1 mps 667 mmHg 57%
    01:00 +16°C° 0 mm 1 mps 667 mmHg 56%
    02:00 +16°C° 0 mm 1 mps 667 mmHg 55%
    03:00 +16°C° 0 mm 1 mps 667 mmHg 54%
    04:00 +15°C° 0 mm 2 mps 667 mmHg 54%
    05:00 +17°C° 0 mm 2 mps 667 mmHg 49%
    06:00 +18°C° 0 mm 2 mps 668 mmHg 45%
    07:00 +20°C° 0 mm 2 mps 669 mmHg 40%
    08:00 +23°C° 0 mm 2 mps 669 mmHg 34%
    09:00 +25°C° 0 mm 2 mps 670 mmHg 28%
    10:00 +26°C° 0 mm 3 mps 670 mmHg 22%
    11:00 +27°C° 0 mm 3 mps 670 mmHg 22%
    12:00 +28°C° 0 mm 3 mps 670 mmHg 21%
    13:00 +29°C° 0 mm 3 mps 670 mmHg 21%
    14:00 +28°C° 0 mm 3 mps 670 mmHg 23%
    15:00 +28°C° 0 mm 3 mps 670 mmHg 24%
    16:00 +27°C° 0 mm 3 mps 670 mmHg 26%
    17:00 +25°C° 0 mm 2 mps 669 mmHg 32%
    18:00 +23°C° 0 mm 2 mps 669 mmHg 37%
    19:00 +21°C° 0 mm 1 mps 669 mmHg 43%
    20:00 +20°C° 0 mm 1 mps 669 mmHg 44%
    21:00 +19°C° 0 mm 1 mps 668 mmHg 45%
    22:00 +19°C° 0 mm 1 mps 668 mmHg 46%
    23:00 +17°C° 0 mm 2 mps 668 mmHg 46%
    Show more